Other Public Products
Issued by NWS Grand Forks, ND

Home | Current Version | Previous Version | Graphics & Text | Print | Product List | Glossary On
Versions: 1 2 3 4 5 6 7 8 9 10 11 12 13 14 15 16 17 18 19 20 21 22 23 24 25 26 27 28 29 30 31 32 33 34 35 36 37 38 39 40 41 42 43 44 45 46 47 48 49 50
000
FPUS83 KFGF 261310
OPUFGF
PRAIRIE TO PINES WEATHER ROUNDUP
NATIONAL WEATHER SERVICE EASTERN NORTH DAKOTA/GRAND FORKS ND
700 AM CST FRI DEC 26 2014

 **SATELLITE DATA USED TO AUGMENT SKY COVER AT AUTOMATED STATIONS**
 *****  WEATHER ACROSS EASTERN NORTH DAKOTA  *****

CITY           SKY/WX    TMP DP  RH WIND       PRES   REMARKS
GRAND FORKS    CLOUDY    24  18  77 N8        30.12R WCI  15
GRAND FORKS AF CLOUDY    23  19  85 N8        30.12R WCI  14
GRAND CITY NWS   N/A     23 N/A N/A N9          N/A  WCI  13
BUXTON         NOT AVBL
DEVILS LAKE    CLOUDY    18  10  73 NW14      30.11R WCI   4
FARGO          CLOUDY    24  19  81 N12       30.10R WCI  13
WAHPETON ARPT  CLOUDY    25  21  86 N13G18    30.09R WCI  13
$$

 *****  WEATHER ACROSS CENTRAL AND WESTERN NORTH DAKOTA  *****

CITY           SKY/WX    TMP DP  RH WIND       PRES   REMARKS
JAMESTOWN      CLOUDY    21  17  84 N12       30.11R WCI   9
BISMARCK       CLOUDY    14   7  73 N12       30.16R WCI   0
MINOT          CLOUDY     7   2  80 E5        30.15R WCI  -2
MINOT AFB      CLOUDY     5   3  92 NE3       30.16R
GARRISON         N/A     13   8  81 NW8       30.13R WCI   2
WILLISTON      CLOUDY    12   9  87 N3        30.14R
DICKINSON      CLOUDY    17  12  80 NW3       30.07R
HETTINGER      CLOUDY    16  10  77 NW14      30.10R WCI   2
$$

 *****  OTHER OBSERVATIONS NORTHEAST NORTH DAKOTA  *****

CITY           SKY/WX    TMP DP  RH WIND       PRES   REMARKS
WALHALLA         N/A     18  18 100 NW16      30.15R WCI   3
LANGDON        CLOUDY    10   7  85 NW15      30.11R WCI  -6
CAVALIER       CLOUDY    19  16  86 NW16      30.14R WCI   5
GRAFTON        NOT AVBL
CANDO          CLOUDY    10   7  85 N8        30.14R WCI  -1
FORT TOTTEN      N/A     15  12  88 NW7       29.95S WCI   5
ROLLA          FAIR       0  -4  85 NW12      30.12R WCI -18
RUGBY          FAIR       0  -4  85 NW13      30.16R WCI -18
 ***** THE ABOVE OBSERVATIONS ARE NON NWS ARE NOT QUALITY
        CONTROLLED AND MAY MIS-REPORT RAIN FOR SNOW...
$$

 *****  OTHER OBSERVATIONS SOUTHEAST NORTH DAKOTA *****

CITY           SKY/WX    TMP DP  RH WIND       PRES   REMARKS
COOPERSTOWN    NOT AVBL
VALLEY CITY    CLOUDY    21  21 100 N12       30.10R WCI   9
OAKES            N/A     23  23 100 N12       30.09R FOG     WCI  12
GWINNER        CLOUDY    27  25  93 N13       30.10R WCI  16
BUFFALO        NOT AVBL
WYNDMERE         N/A     25  21  86 N10         N/A  WCI  15
 ***** THE ABOVE OBSERVATIONS ARE NON NWS ARE NOT QUALITY
       CONTROLLED AND MAY MIS-REPORT RAIN FOR SNOW...
$$

  *****  WEATHER ACROSS NORTHERN MINNESOTA  *****

CITY           SKY/WX    TMP DP  RH WIND       PRES   REMARKS
FLAG ISLAND    PTCLDY    19  18  93 NW10      30.06R WCI   8
WARROAD        CLOUDY    19  16  86 W3        30.08R
ROSEAU         MOCLDY    18  14  86 N5        30.09R WCI  11
HALLOCK        CLOUDY    21  19  93 N3        30.12R
THF RVR FALLS  CLOUDY    23  19  86 NW8       30.08R WCI  14
HALSTAD          N/A     22  18  83 N10         N/A  WCI  11
FOSSTON        CLOUDY    19  18  93 N6        30.06R WCI  11
BAUDETTE       FLURRIES  21  17  84 NW8       30.05R WCI  11
WASKISH        CLOUDY    21  19  93 CALM      30.05R
CROOKSTON      FLURRIES  23  19  86 N10       30.12R WCI  12
$$
  *****  WEATHER ACROSS CENTRAL AND WEST MINNESOTA  *****

CITY           SKY/WX    TMP DP  RH WIND       PRES   REMARKS
BEMIDJI        CLOUDY    24  19  81 N7        30.02S WCI  15
PARK RAPIDS    CLOUDY    25  20  81 N10       30.01R WCI  15
WADENA         CLOUDY    25  21  86 N7        30.01R WCI  17
DETROIT LAKES  CLOUDY    27  23  86 N8        30.04R WCI  18
MOORHEAD       CLOUDY    25  23  93 N13       30.10R WCI  13
FERGUS FALLS   CLOUDY    25  21  86 N6        30.08R WCI  18
ELBOW LAKE     CLOUDY    26  23  90 N9        30.04R WCI  16
MORRIS MN      LGT SNOW  27  25  93 N9        30.03R WCI  17
STAPLES        CLOUDY    25  21  86 N9        30.01R WCI  15
WHEATON        CLOUDY    21  21 100 NW17      30.09R FOG     WCI   7
$$
  *****  WEATHER ELSEWHERE ACROSS MINNESOTA  *****

CITY           SKY/WX    TMP DP  RH WIND       PRES   REMARKS
DULUTH         FLURRIES  27  21  78 N8        29.96R WCI  19
INTRNTL FALLS  CLOUDY    22  18  85 NW12      30.02R WCI  10
ELY            CLOUDY    25  23  93 CALM      29.97R
CLOQUET        CLOUDY    28  23  80 N7        29.98R WCI  21
BRAINERD       CLOUDY    27  20  75 N8        30.00R WCI  19
HIBBING        CLOUDY    27  23  85 N5        29.99R WCI  22
ALEXANDRIA     LGT SNOW  26  23  88 N6        30.01R FOG     WCI  19
SAINT CLOUD    CLOUDY    31  25  78 N10       29.98R WCI  22
MINNEAPOLIS    CLOUDY    32  29  88 N14       29.93R WCI  22
$$

  *****  WEATHER ACROSS SOUTH DAKOTA  *****

CITY           SKY/WX    TMP DP  RH WIND       PRES   REMARKS
SIOUX FALLS    FLURRIES  26  23  88 N16       30.00R WCI  14
BROOKINGS      NOT AVBL
WATERTOWN      LGT SNOW  22  19  89 N16       30.02R FOG     WCI   8
HURON          CLOUDY    24  20  84 N13       30.07R WCI  12
SISSETON         N/A     24  21  88 N17       30.07R WCI  11
ABERDEEN       CLOUDY    24  20  84 NE9       30.10R WCI  14
MITCHELL       CLOUDY    26  23  88 N15       30.07R WCI  14
PIERRE         CLOUDY    24  21  88 N14       30.09R WCI  12
MOBRIDGE       CLOUDY    24  20  84 N6        30.08R WCI  17
RAPID CITY     CLOUDY    19  16  88 N10       30.06R WCI   7
$$

  *****  SOME WEATHER IN NEARBY STATES *****

CITY           SKY/WX    TMP DP  RH WIND       PRES   REMARKS
GLASGOW MT     CLOUDY    18  13  80 E10       30.05R WCI   6
GREAT FALLS MT CLOUDY    21  18  86 NW12      30.00R WCI   9
CHEYENNE WY    FLURRIES  11   8  88 N5        29.85S WCI   3
SCOTTSBLUFF NE LGT SNOW  18  14  84 CALM      30.00S FOG
OMAHA NE       CLOUDY    34  32  92 N15       29.92R WCI  24
DES MOINES IA  PTCLDY    35  29  78 S3        29.88R
DAVENPORT IA   MOCLDY    40  32  73 S14       29.93R
CHICAGO IL     PTCLDY    37  32  82 SW10      29.99R
EAU CLAIRE WI  CLOUDY    31  28  89 NE3       29.90R
LA CROSSE WI   CLEAR     26  24  92 CALM      29.90R
$$

  *****  SOME NATIONAL WEATHER *****

CITY           SKY/WX    TMP DP  RH WIND       PRES   REMARKS
LA GUARDIA NY  CLEAR     41  28  60 W12       30.24R
RALEIGH NC     MOCLDY    30  28  92 CALM      30.34R
ATLANTA GA     PTCLDY    39  33  79 NE5       30.30R
NEW ORLEANS LA CLOUDY    51  47  86 E6        30.19R
OKLAHOMA CITY  MOCLDY    48  42  80 S10       29.87R
ALBUQUERQUE NM CLOUDY    31  29  92 SW3       29.75R
SALT LAKE CITY MOCLDY    24  17  74 N3        29.91R
LOS ANGELES CA CLEAR     51  17  26 NE10      29.98R
BOISE ID       CLOUDY    30  23  75 NW8       30.10R WCI  22
SEATTLE WA     CLOUDY    38  36  92 E5        30.33S
$$

*** WEATHER ACROSS MANITOBA...SASKATCHEWAN AND ONTARIO ***
                ***ONTARIO***

CITY           SKY/WX    TMP DP  RH WIND       PRES   REMARKS
GERALDTON      CLOUDY    27  25  93 SW6       29.91R WCI  20
THUNDER BAY    CLOUDY    28  27  93 W5        29.98R WCI  23
SIOUX LOOKOUT  NOT AVBL
TORONTO        MOCLDY    32  30  93 SW7       30.16F
BIG TROUT LK   FLURRIES  16  14  93 NW7       29.93R WCI   6
PICKLE LAKE    FLURRIES  19  16  86 NW6       29.95R WCI  11
DRYDEN         FLURRIES  21  21 100 NW5       29.99R WCI  15
KENORA         FLURRIES  18  16  93 NW8       30.04R WCI   7
$$
                *** MANITOBA***

CITY           SKY/WX    TMP DP  RH WIND       PRES   REMARKS
BRANDON        PTCLDY    -8 -13  77 W10       30.16R WCI -26
DAUPHIN        FLURRIES  -4  -8  84 W10       30.20R WCI -21
ISLAND LAKE    FLURRIES   3  -2  78 NW9       30.06R WCI -11
PILOT MOUND      N/A     -2  -6  84 W8          N/A  WCI -17
THE PAS        CLEAR    -13 -18  77 NW7       30.18S WCI -29
THOMPSON       CLEAR    -22 -27  76 W6        30.10S WCI -38
WINNIPEG       LGT SNOW  12   7  79 NE8       30.17R WCI   1
CHURCHILL      LGT SNOW  -8 -13  77 W16       30.01R DRFTSNOWWCI -30
GILLAM         LGT SNOW -13 -18  77 W8        30.05R DRFTSNOWWCI -30
$$
                ***SASKATCHEWAN***

CITY           SKY/WX    TMP DP  RH WIND       PRES   REMARKS
ESTEVAN        FLURRIES  -2  -6  84 NW10      30.15R WCI -19
KINDERSLEY     MOCLDY     3   0  85 S5        30.09R WCI  -6
LLOYDMINSTER   CLEAR      3   0  85 SW9       30.04F WCI -11
PRINCE ALBERT  MOCLDY   -24 -29  76 CALM      30.18F
REGINA         CLOUDY     1  -2  85 N5        30.15R WCI  -8
YORKTON        CLOUDY    -8 -13  77 NW6       30.15  WCI -21
N. BATTLEFORD  CLOUDY     3   1  92 E3        30.14S


USA.gov is the U.S. government's official web portal to all federal, state and local government web resources and services.